SCP
1 1 0 0 1 1 0 0 0 0 0 0 0 0 0 0 1 2 2 2 2 2 2 2 3 2 2 2 1 1 1 1 1 1 0 0 0 0 0 1 1 1 1 1 1 1 1 1 1
1 0 0 0 0 0 0 0 0 0 0 0 0 0 0 0 1 2 2 2 2 2 2 2 3 3 2 2 1 1 1 1 1 1 0 0 0 0 0 1 1 1 1 1 1 1 1 1 1
0 0 0 0 0 0 0 0 0 0 0 0 0 0 0 1 1 2 2 2 2 2 2 2 3 3 2 2 1 1 1 1 1 1 1 0 0 0 0 0 1 1 1 1 1 1 1 1 1
0 0 0 0 0 0 0 0 0 0 0 1 0 1 1 1 1 1 2 2 2 2 2 2 3 3 2 2 2 1 1 1 1 1 1 1 0 0 0 0 0 1 1 1 1 1 1 1 1
1 0 0 0 0 0 0 0 0 0 0 0 0 1 1 1 1 1 1 2 2 2 2 3 3 3 2 2 2 1 1 1 1 1 1 1 1 1 1 0 0 0 1 1 1 1 1 1 1
1 0 0 0 0 0 0 0 0 0 0 0 0 1 1 1 1 1 1 2 2 2 3 3 3 3 2 2 2 1 1 1 1 1 1 1 1 1 1 0 0 0 0 1 1 1 1 1 1
0 0 0 0 0 0 0 0 0 0 0 0 0 1 1 1 1 1 2 2 2 2 3 3 3 3 2 2 1 1 1 1 1 1 1 1 1 1 1 0 0 0 0 1 1 1 1 1 1
0 0 0 0 0 0 0 0 0 0 0 0 1 1 1 1 1 1 2 2 3 3 3 3 3 3 2 2 1 1 1 1 1 1 1 1 1 1 1 1 0 0 0 0 1 1 1 1 1
0 0 0 0 0 0 0 0 0 0 0 0 1 1 2 2 2 2 2 2 2 3 3 3 3 2 2 2 1 1 1 1 1 1 1 1 0 1 1 1 0 0 0 0 1 1 1 1 1
0 0 0 0 0 0 0 0 0 0 0 0 1 1 1 2 2 2 2 2 2 2 2 2 2 2 2 2 1 1 1 1 1 1 1 1 1 1 1 1 0 0 0 0 1 1 1 1 0
0 0 0 0 0 0 0 0 0 0 0 0 0 1 1 1 1 2 2 2 1 1 1 2 2 2 2 2 1 1 1 1 1 1 0 1 1 1 1 1 1 0 0 0 1 1 1 0 0
0 0 0 0 0 0 0 0 0 0 0 0 0 1 1 1 1 1 1 1 1 1 1 1 1 2 2 1 1 1 1 1 1 1 1 1 1 1 1 1 1 0 0 0 0 0 0 0 0
0 0 0 0 0 0 0 0 0 0 0 0 1 1 2 1 1 1 1 1 0 0 0 0 1 1 1 1 1 1 1 1 1 1 1 1 1 1 1 1 1 1 1 0 0 0 0 0 0
0 0 0 0 0 0 0 0 0 0 0 0 1 1 2 1 1 1 0 0 0 0 0 0 0 0 1 1 1 1 1 1 1 1 1 1 1 1 1 1 1 1 1 0 0 0 0 0 0
0 0 0 0 0 0 0 0 0 0 0 0 1 1 1 1 1 1 1 0 0 0 0 0 0 0 0 0 1 1 1 1 1 1 0 0 0 0 1 1 1 1 1 1 0 0 0 0 0
0 0 0 0 0 0 0 0 0 0 0 0 0 1 1 1 1 1 1 0 0 0 0 0 1 0 0 0 0 1 1 1 1 0 0 0 0 0 0 0 0 1 1 1 1 0 0 0 0
0 0 0 0 0 0 0 0 0 0 0 0 0 0 1 1 1 1 1 1 0 0 0 0 1 1 0 0 0 0 1 1 1 0 0 0 0 0 0 0 0 0 0 1 1 0 0 0 0
0 0 0 0 0 0 0 0 0 0 0 0 0 0 0 1 1 1 1 1 0 0 0 0 0 1 1 0 0 0 1 1 1 0 0 0 0 0 0 0 0 0 0 0 0 0 0 0 0
0 0 0 0 0 0 0 0 0 0 0 0 0 0 0 1 1 1 1 0 0 0 0 0 0 1 1 1 0 0 1 1 1 0 0 0 0 0 0 0 0 0 0 0 0 0 0 0 0
0 0 0 0 0 0 0 0 0 0 0 0 0 0 0 0 1 1 1 0 0 0 0 0 0 0 1 1 0 0 1 1 1 0 0 0 0 0 0 0 0 0 0 0 0 0 0 0 0
0 0 0 0 0 0 0 0 0 0 0 0 0 0 0 0 1 1 1 0 0 0 0 0 0 0 0 0 0 0 0 1 1 0 0 0 0 0 0 0 0 0 0 0 0 0 0 0 0
0 0 0 0 0 0 0 0 0 0 0 0 0 0 0 0 0 1 1 0 0 0 0 0 0 0 0 0 0 0 0 1 1 0 0 0 0 0 0 0 0 0 0 0 0 0 0 0 0
0 0 0 0 0 0 0 0 0 0 0 0 0 0 0 0 0 1 1 0 0 0 0 0 0 0 0 0 0 0 0 1 1 0 0 0 0 0 0 0 0 0 0 0 0 0 0 0 0
0 0 0 0 0 0 0 0 0 0 0 0 0 0 0 0 0 0 0 0 0 0 0 0 0 0 0 0 0 0 0 1 1 0 0 0 0 0 0 0 0 0 0 0 0 0 0 0 0
0 0 0 0 0 0 0 0 0 0 0 0 0 0 0 0 0 0 0 0 0 0 0 0 0 0 0 0 0 0 0 1 1 0 0 0 0 0 0 0 0 0 0 0 0 0 0 0 0
0 0 0 0 0 0 0 0 0 0 0 0 0 0 0 0 0 0 0 0 0 0 0 0 0 0 0 0 0 0 0 1 1 0 0 0 0 0 0 0 0 0 0 0 0 0 0 0 0
0 0 0 0 0 0 0 0 0 0 0 0 0 0 0 0 0 0 0 0 0 0 0 0 0 0 0 0 0 0 0 1 1 0 0 0 0 0 0 0 0 0 0 0 0 0 0 0 0
0 0 0 0 0 0 0 0 0 0 0 0 0 0 0 0 0 0 0 0 0 0 0 0 0 0 0 0 0 0 0 1 1 1 0 0 0 0 0 0 0 0 0 0 0 0 0 0 0
0 0 0 0 0 0 0 0 0 0 0 0 0 0 0 0 0 0 0 0 0 0 0 0 0 0 0 0 0 0 1 1 1 1 0 0 0 0 0 0 0 0 0 0 0 0 0 0 0
0 0 0 0 0 0 0 0 0 0 0 0 0 0 0 0 0 0 0 0 0 0 0 0 0 0 0 0 0 0 1 1 1 0 0 0 0 0 0 0 0 0 0 0 0 0 0 0 0
Wind_Speed
11 10 6 2 3 4 7 6 3 1 3 4 5 4 5 6 6 7 4 4 8 8 9 8 8 8 8 8 7 7 7 7 7 7 7 7 7 7 7 7 7 7 7 7 8 7 7 7 7
9 7 4 3 4 5 6 5 2 3 4 3 3 2 2 6 8 8 4 5 8 8 8 7 8 8 7 7 7 7 7 6 6 6 7 6 6 6 6 7 7 6 6 7 7 6 6 7 7
10 7 3 3 5 5 3 1 5 5 4 2 2 3 4 5 7 5 5 5 7 8 8 8 9 8 7 7 7 6 7 6 6 6 6 6 6 6 6 6 7 6 6 6 6 6 5 6 6
4 3 4 5 8 6 2 2 4 4 3 2 2 3 5 5 5 6 6 5 7 7 7 8 8 7 6 6 6 6 6 5 5 5 5 5 5 5 5 6 6 6 5 5 5 5 5 5 5
3 3 5 6 8 5 1 3 3 2 3 2 1 3 5 5 7 8 5 5 6 7 7 7 8 7 6 5 5 4 4 4 4 4 4 5 5 5 5 5 5 5 4 4 4 5 5 4 4
3 3 5 7 7 4 1 2 1 1 1 2 1 1 5 5 6 6 5 4 5 6 7 6 7 6 5 5 4 3 4 4 4 4 3 4 4 4 4 4 4 4 4 3 3 4 4 4 4
3 3 6 7 5 3 1 2 0 1 1 1 1 1 6 5 6 5 4 4 5 6 6 5 4 4 4 4 3 3 2 3 3 3 3 3 3 3 3 4 4 4 4 4 3 3 3 3 3
3 4 6 5 5 2 2 2 3 3 2 3 3 1 4 5 6 5 4 4 4 5 5 4 3 2 2 2 2 2 2 2 2 3 3 3 2 2 2 3 3 3 4 4 3 3 3 3 3
3 3 4 3 3 0 3 1 2 2 2 1 2 3 5 7 6 4 3 3 3 3 3 3 2 2 1 1 1 2 1 1 1 1 2 2 0 0 0 1 2 3 3 4 3 3 4 4 4
2 3 3 3 5 2 2 1 1 0 1 1 1 3 6 6 5 4 3 3 3 2 2 2 2 1 1 1 1 1 1 1 1 1 0 0 0 1 1 1 2 2 3 4 4 4 4 3 2
2 3 2 3 4 4 2 1 1 1 3 3 3 4 5 5 4 4 3 3 2 2 2 2 1 1 1 1 1 0 0 1 1 0 0 0 0 0 0 0 1 1 2 2 3 3 2 2 2
3 4 3 2 3 2 2 2 2 3 3 2 1 1 3 4 5 5 4 2 2 3 2 1 1 1 0 0 1 1 1 1 1 1 1 0 0 0 0 0 1 1 1 1 1 2 2 2 2
5 4 2 2 2 2 3 4 4 5 4 2 0 1 3 3 3 3 3 3 2 2 2 2 1 1 0 1 1 1 1 1 1 0 1 1 0 1 1 1 1 1 1 1 2 2 2 2 2
2 2 3 3 3 3 4 5 5 6 4 2 2 2 3 3 4 3 3 3 3 2 2 2 1 1 0 1 1 1 1 1 1 1 1 1 0 0 1 1 1 1 1 1 2 2 2 2 2
2 4 5 6 5 3 2 6 7 6 4 4 4 4 4 4 3 3 3 2 2 2 2 2 1 1 0 1 1 1 1 1 1 1 1 1 1 1 1 1 1 1 2 2 2 2 2 2 2
4 5 4 4 5 4 3 7 3 4 5 5 5 4 4 4 3 3 3 2 2 2 2 2 1 1 1 1 1 1 1 1 1 1 1 0 1 1 1 1 1 1 1 1 2 2 2 1 2
5 5 5 3 5 4 5 6 3 3 5 5 5 4 4 3 3 3 2 3 2 2 2 2 2 1 1 1 1 1 1 1 1 0 1 1 1 1 1 1 1 1 1 1 2 1 1 2 2
3 5 6 5 3 4 5 8 6 4 5 5 4 4 4 4 3 2 2 2 2 2 2 2 2 1 1 1 1 1 1 1 0 0 1 1 1 1 1 1 2 1 1 1 1 2 2 1 2
5 7 8 7 3 4 7 10 9 6 6 6 5 4 4 4 3 3 3 2 2 2 2 1 2 1 1 1 1 1 1 1 1 1 1 1 1 1 1 2 2 2 1 2 2 2 1 1 1
7 8 8 6 2 4 7 11 9 7 7 6 5 4 4 3 2 3 3 3 2 2 1 1 1 1 1 1 1 1 1 1 1 1 1 1 1 2 2 2 2 2 2 2 2 1 1 1 1
7 7 6 7 7 6 6 9 8 6 6 6 5 4 4 4 3 3 3 3 2 2 2 2 1 1 1 1 1 0 0 0 0 1 1 1 2 2 2 2 2 2 2 2 2 2 1 2 2
6 3 5 6 5 5 3 7 6 6 6 6 5 4 3 3 3 3 3 3 2 2 2 2 2 2 1 1 1 1 2 2 2 1 1 2 1 1 2 2 2 2 1 1 2 2 2 2 2
4 4 5 6 6 6 5 6 6 4 5 5 4 4 3 3 3 3 3 3 2 2 1 1 1 1 1 1 1 1 2 1 1 1 1 1 1 1 2 2 2 2 1 2 2 2 2 2 2
3 4 6 4 3 6 6 6 6 3 4 3 4 3 3 2 2 2 2 3 2 2 1 1 1 1 1 1 1 1 2 1 1 1 1 2 1 1 2 2 2 2 2 2 2 2 2 2 3
2 1 1 1 3 6 3 4 6 3 2 3 3 3 2 2 2 2 2 3 2 2 2 1 1 1 1 0 0 1 2 2 2 2 2 2 2 2 2 3 2 2 2 2 2 2 2 3 3
4 3 2 3 4 4 3 6 5 2 2 2 1 3 2 2 2 3 3 3 3 3 3 2 2 1 1 1 1 1 2 1 1 2 2 2 2 2 2 2 2 2 2 2 1 1 2 3 3
2 3 2 2 4 5 6 4 3 3 2 1 1 2 2 2 3 3 3 2 3 3 3 3 2 1 1 1 1 1 1 1 1 2 2 2 2 2 2 2 2 2 2 2 2 1 2 2 2
3 1 1 2 3 5 6 5 4 4 3 1 1 1 1 1 2 3 3 2 3 3 3 2 2 2 1 1 1 1 2 2 1 1 2 2 2 2 2 2 2 2 2 2 2 1 2 2 2
4 3 3 3 4 3 5 5 1 2 3 3 2 2 2 2 2 2 2 2 2 2 2 2 2 2 1 1 1 1 1 2 1 2 2 2 2 2 2 3 2 2 2 2 1 2 2 2 2
4 5 5 3 4 4 4 7 1 2 1 1 0 1 1 2 2 2 2 2 2 2 2 3 2 2 2 2 1 2 2 1 1 2 2 2 2 2 2 2 2 2 2 2 2 3 3 2 2
Wind_Direction
297 274 254 248 238 231 237 242 249 87 63 49 27 15 30 33 33 101 140 104 107 114 118 116 105 98 92 85 77 71 68 61 54 50 51 50 48 43 43 41 43 44 47 50 48 47 44 46 45
286 271 249 236 237 234 235 226 217 74 82 80 58 14 57 77 83 104 115 105 109 108 109 111 106 99 92 86 77 70 65 58 53 50 48 44 42 39 40 40 36 37 43 44 44 44 46 47 46
273 263 249 231 231 238 250 79 94 89 89 98 90 27 34 69 87 100 114 120 112 108 108 110 108 100 94 87 78 70 62 54 47 48 45 42 37 37 39 35 32 30 36 38 34 41 46 45 41
272 235 242 243 246 254 269 61 92 106 119 131 128 108 81 50 70 99 114 123 114 111 107 112 113 106 98 89 79 70 62 53 47 47 45 41 36 35 37 34 30 26 28 32 32 35 35 37 34
248 245 233 236 244 260 326 60 73 140 155 155 174 123 100 75 86 101 112 115 111 110 108 116 113 109 101 92 83 69 58 53 51 48 45 39 34 34 32 30 25 22 24 30 27 29 22 21 21
251 244 241 238 240 231 201 103 121 242 168 130 145 141 106 113 103 108 108 98 103 106 110 120 118 114 108 98 85 69 57 52 50 41 40 32 28 31 35 30 25 22 19 19 17 18 10 3 5
268 262 255 262 262 234 160 84 55 278 251 80 17 117 123 116 106 107 105 98 94 103 105 117 128 130 125 112 95 79 58 46 38 31 31 26 21 23 31 25 20 18 9 3 3 357 350 345 344
300 288 262 258 259 253 84 79 29 4 1 23 24 29 113 123 114 111 104 95 90 94 100 111 118 120 129 129 117 96 79 49 24 20 21 17 14 15 24 20 16 9 1 355 345 338 331 322 319
283 263 262 282 285 106 96 95 68 32 7 28 39 53 91 120 118 121 121 111 102 92 90 100 106 100 104 135 136 123 112 86 15 2 352 357 331 290 28 14 10 356 348 343 332 325 318 310 298
242 254 278 342 339 0 67 43 58 241 230 223 145 101 111 127 139 159 165 165 144 126 108 93 86 102 112 136 125 163 180 175 207 204 182 259 325 336 1 331 332 329 328 321 308 305 304 303 278
238 258 291 327 349 4 358 339 334 260 257 242 203 156 142 150 165 186 194 178 153 125 102 97 103 100 149 156 160 184 191 196 228 213 213 228 143 300 4 241 287 282 308 304 303 294 285 285 287
252 266 290 322 359 349 312 298 289 253 265 349 21 110 156 180 189 196 199 176 146 134 133 111 113 90 288 196 197 187 196 215 216 191 252 245 164 261 243 224 257 262 273 284 286 278 273 278 282
244 261 297 310 298 282 282 268 271 266 261 277 339 153 187 204 210 207 185 170 161 155 151 146 145 152 328 270 238 212 203 232 228 196 244 274 203 242 257 256 263 282 289 280 283 289 290 278 278
300 299 280 265 252 249 259 265 250 252 235 216 203 204 213 217 211 210 192 184 182 172 152 153 154 169 206 275 246 230 203 219 217 203 240 279 245 250 269 260 283 290 290 278 276 281 284 269 267
270 264 256 235 225 218 258 264 235 232 215 210 218 216 213 222 215 211 192 186 187 180 160 160 168 152 220 262 254 244 222 217 198 195 211 279 295 260 275 280 279 286 291 288 291 289 295 283 283
240 243 247 208 197 184 207 258 241 197 200 216 225 225 217 213 212 199 186 186 182 179 170 161 175 175 217 258 275 269 254 238 225 195 189 238 284 279 280 277 276 283 291 290 289 290 298 290 291
223 248 254 237 195 194 208 252 250 199 209 230 230 225 214 206 200 190 180 173 175 176 174 158 162 175 208 240 261 259 249 250 231 205 189 210 238 263 269 265 270 284 289 281 289 301 299 297 300
266 277 279 275 223 227 240 256 260 246 234 237 232 227 210 201 198 176 172 170 169 164 162 166 159 168 192 207 239 269 255 258 252 230 224 225 225 249 265 263 271 273 267 272 273 274 281 271 273
285 284 282 284 285 263 258 264 259 249 240 241 233 222 219 213 186 167 169 161 154 153 154 176 169 178 173 192 223 244 242 253 266 255 252 240 231 246 254 268 275 268 252 250 252 256 274 286 284
271 278 284 292 300 281 274 273 263 237 230 228 222 217 221 223 196 182 177 168 166 159 156 179 190 183 191 205 217 235 236 240 235 252 283 264 252 247 250 244 258 264 255 250 245 255 252 265 253
262 261 278 293 305 269 277 280 246 228 213 212 213 213 215 211 208 194 180 175 166 175 189 202 209 195 200 203 177 252 285 300 276 266 258 260 261 259 254 251 258 261 251 225 216 224 227 248 258
265 287 288 289 292 278 239 284 255 213 212 213 209 205 208 214 202 184 175 180 180 189 193 196 194 188 200 190 181 207 224 229 241 237 248 268 256 261 259 263 267 265 248 217 224 215 232 241 245
274 316 283 269 269 279 245 250 273 203 217 217 197 187 193 201 192 179 176 185 177 165 172 190 173 184 210 210 201 224 244 244 258 257 258 277 268 251 267 266 261 262 244 220 230 235 246 249 241
273 282 267 247 257 263 232 221 271 224 210 190 178 174 177 182 179 164 167 165 151 136 149 171 165 182 206 228 219 233 240 232 236 256 258 277 277 257 249 259 252 254 243 221 225 230 237 255 255
244 291 314 269 228 245 213 223 244 238 161 170 179 180 170 165 166 164 165 166 157 158 171 177 179 207 214 246 259 269 254 224 226 249 245 265 269 275 260 258 253 252 247 233 228 229 236 250 251
234 223 208 247 262 284 246 233 239 155 122 93 143 172 161 160 166 160 158 162 164 172 177 180 193 211 209 228 257 275 272 247 249 255 258 257 258 261 267 262 261 262 252 245 232 239 236 243 234
225 224 253 278 284 278 251 236 241 156 149 148 175 173 175 175 161 158 156 158 170 181 183 183 183 199 216 225 241 270 268 260 269 277 274 269 274 275 268 263 263 264 260 244 236 239 257 247 224
251 254 194 216 259 270 270 242 233 205 217 221 220 233 215 171 156 154 158 172 183 179 180 172 175 198 216 217 225 265 262 259 266 273 273 278 282 278 276 277 268 261 250 239 235 242 257 237 234
194 215 220 236 243 252 280 270 287 183 182 204 233 219 197 178 160 162 165 175 172 165 174 185 188 196 216 219 222 242 254 262 274 281 277 275 278 275 271 269 268 263 258 248 239 241 251 229 237
210 213 197 215 246 235 264 275 346 44 109 148 256 276 214 178 161 158 163 168 170 181 194 194 194 203 214 215 224 238 237 248 265 276 288 287 285 283 275 273 267 263 256 248 245 244 245 222 228